Kapuskasing Airport
CYYU : now visible

Airfield :











YOU CAN JOIN US ON...

 
LOGIN :

Register | Disclaimer

   EN    FR    IT 

 









Legend :    VFR   Marginal VFR   IFR   Intensive IFR   Very Intensive IFR
Visi :
Ceiling :
>= 8 km
>= 3000ft
5 to 8 km
1000 to 3000 ft
1500m to 5 km
500 to 1000 ft
800 to 1500m
200 to 500 ft
< 800m
< 200 ft
Symbols :   Thunderstorms  Fog  Heavy snow  Heavy precipitations  Wind > 20 kt






- Airport Elevation : 743 ft
- IATA code : YYU


CYYU - Kapuskasing

CURRENT METAR :
  • 221400Z 25008KT 240V310 14SM SCT055 BKN068 01/M07 A2980 RMK SC3AC3 SLP104

EXPIRED METARs :
  • 221300Z 28009KT 15SM SCT065 OVC071 M01/M08 A2981 RMK SC3AC5 SLP108

TAF TAF CYYU
Valid from the 22 at 14:00 until the 23 at 02:00 UTC


221338Z 2214/2302 28010KT P6SM BKN070
TEMPO 2214/2220 SCT070 RMK NXT FCST BY 222000Z
CZYZ FIR / North America



MET'MAP, your aeronautical weather chart ! - Copyright ORBIFLY December 2007 - Disclaimer

ORBIFLY MET'MAP TEAM :

Programming & Development : Alexandra Zaïnal
Concept & original design : Baudouin d'Aumeries
Assistance for programming : Marc-Olivier Méhu
Technical & hardware support : Manuel Goepfert

Contact : metmap@orbifly.com




SOURCES & CREDITS :

   NOAA       Earth
Advisory